ECMWFFLT1_sfc_dewp_009.txt.gz
Dewpoint
48 49 50 50 50 52 51 50 49 48 48 48 48 49 52 54 53 53 53 54 55 57 58 55 55 55 57 57 57 56 57 56 56 56 56 57 56 55 57 56 56 56 56 55 53 51 48 48 49 52 52 50 51 54 56 56 55 55 56 57 58 59 59
50 51 52 53 52 51 50 47 47 46 47 48 48 49 49 51 53 51 52 53 54 54 55 53 52 53 53 53 53 54 55 55 55 54 56 54 53 53 55 55 55 54 52 53 54 52 50 47 46 47 47 47 48 49 49 48 46 48 53 56 59 60 59
52 52 51 51 50 49 47 46 46 46 47 47 47 48 49 49 50 51 51 50 51 51 52 50 50 50 50 50 51 52 52 50 50 53 54 52 52 52 53 54 52 48 42 43 44 47 47 49 47 47 45 41 40 43 48 45 45 47 48 49 47 47 47
51 51 50 49 50 47 46 45 45 46 46 46 48 47 48 49 50 51 49 49 50 53 50 48 48 48 49 49 48 48 48 47 47 47 48 48 47 46 46 49 48 46 41 41 40 44 41 40 39 39 41 42 41 41 41 45 46 44 42 43 42 41 42
51 50 49 50 49 47 46 45 46 46 45 46 46 47 47 48 49 48 50 48 50 49 49 49 48 48 48 47 47 46 46 46 46 46 44 44 44 44 44 44 44 44 44 42 43 44 42 41 40 39 39 41 39 42 42 45 45 43 42 40 39 40 40
51 50 49 50 49 47 47 46 46 45 45 45 45 46 46 46 47 46 47 48 48 49 48 47 46 46 46 45 45 44 44 43 43 42 42 42 42 41 41 42 42 43 43 44 45 44 44 43 41 39 40 41 38 40 42 43 42 43 42 40 38 38 39
50 49 49 50 49 47 47 46 46 45 45 44 46 46 46 46 46 47 47 47 47 47 47 46 46 46 45 44 44 44 44 44 44 43 43 43 42 41 41 41 42 43 43 44 44 44 43 42 40 40 39 39 40 41 41 43 43 39 39 42 41 38 39
50 50 50 51 49 48 47 46 46 46 45 45 46 46 48 46 46 47 47 47 47 47 47 48 48 48 48 48 48 47 46 44 44 44 42 41 41 39 40 41 43 42 42 43 43 44 44 43 42 41 39 35 35 37 40 41 42 42 41 40 43 38 39
51 51 51 51 49 48 47 46 46 46 46 46 46 48 47 47 47 47 48 46 46 47 47 47 48 48 48 47 46 45 46 47 43 43 43 41 41 41 41 41 42 41 42 42 43 44 43 44 44 43 42 39 33 33 38 37 38 39 42 39 41 42 38
51 51 51 51 49 48 47 46 47 47 47 47 47 49 48 46 47 46 45 46 46 47 47 47 47 47 47 47 45 45 45 44 43 42 43 42 43 42 41 41 41 42 43 44 44 45 45 44 44 42 42 41 39 37 36 35 36 37 40 42 37 39 39
51 51 51 51 49 49 48 47 47 47 47 48 48 50 48 47 47 51 45 46 46 46 46 46 46 47 46 45 45 45 45 45 44 44 44 44 44 44 45 44 43 43 46 43 43 46 45 44 43 42 43 43 41 39 38 35 36 39 40 41 41 38 39
50 51 51 51 50 49 48 47 47 47 48 48 49 49 47 46 47 47 45 45 46 46 46 45 46 46 45 44 45 46 47 46 44 43 44 44 44 44 43 42 43 42 46 42 43 44 45 45 44 43 43 44 44 42 40 38 35 38 42 39 40 41 40
50 50 51 51 50 49 49 48 47 47 48 49 49 49 47 46 47 46 45 45 45 46 45 45 46 45 45 44 46 46 46 46 44 43 44 45 45 43 43 43 43 41 43 41 41 42 41 43 44 43 43 43 43 42 42 39 36 38 41 40 40 40 40
50 50 51 51 50 49 49 49 48 48 49 48 49 49 47 46 47 46 45 46 45 46 45 45 46 45 45 45 46 46 46 45 44 44 46 44 44 43 43 41 42 42 43 41 40 40 41 40 40 41 43 41 41 42 41 39 36 37 39 41 42 39 39
50 49 50 51 50 49 49 49 49 49 48 48 49 50 48 47 47 46 45 46 45 46 46 44 45 45 44 45 45 46 46 45 44 44 44 43 44 44 44 41 41 42 43 39 39 40 40 39 36 37 40 39 39 40 41 36 37 37 33 36 38 36 36
51 50 49 50 50 50 50 50 49 49 48 48 49 50 48 47 48 47 46 46 45 46 46 45 45 45 44 45 44 44 45 44 43 43 43 42 43 44 42 43 42 43 43 37 41 42 42 40 38 38 39 40 38 39 40 38 33 32 34 33 38 30 34
51 50 49 51 50 51 51 50 51 50 49 48 49 49 48 48 48 47 46 46 46 46 46 46 46 45 45 44 45 44 44 44 44 43 42 42 42 44 42 41 41 43 42 37 38 41 41 41 40 39 37 39 38 38 39 37 36 33 36 28 30 32 32
53 52 51 51 51 51 52 52 52 50 49 49 50 50 49 49 49 48 48 47 47 46 46 47 47 46 45 45 44 45 44 43 44 44 43 42 44 42 43 41 39 44 42 38 39 40 40 40 39 36 35 36 36 38 38 36 36 32 27 25 29 36 32
53 53 52 52 51 52 53 53 53 52 52 52 52 52 51 51 51 49 49 49 48 48 48 47 47 46 46 47 47 45 46 45 43 43 44 44 43 42 42 41 40 43 41 38 39 41 41 39 36 34 33 33 35 36 35 35 34 31 28 28 29 29 32
54 53 53 53 54 54 53 53 53 53 53 53 53 53 53 52 52 52 52 51 51 51 50 49 48 47 48 47 47 46 45 45 46 44 44 44 43 43 41 41 40 43 41 39 40 41 41 38 38 35 36 34 33 32 33 32 29 29 30 29 31 31 31
54 54 54 54 54 53 53 53 53 53 53 53 54 54 54 54 54 53 53 52 52 52 52 51 50 49 49 49 48 47 47 46 46 45 44 44 44 43 42 41 41 42 41 40 40 41 39 37 36 34 36 34 33 30 31 32 30 30 30 30 29 29 31
54 53 54 54 54 54 54 54 53 54 54 53 53 54 53 53 53 53 54 54 54 53 51 51 52 51 50 49 49 49 49 48 47 46 45 44 44 43 43 42 42 42 45 46 44 43 41 39 33 30 34 35 33 30 31 31 32 31 31 31 30 31 30
54 54 53 53 54 54 54 54 54 54 54 54 54 53 53 53 53 53 53 54 53 51 51 50 50 48 48 49 48 49 48 48 48 48 47 45 44 44 43 43 44 46 46 46 44 41 39 38 38 33 29 33 32 29 30 30 31 32 32 28 29 29 29
53 53 53 53 53 53 53 53 53 53 53 53 53 53 53 53 53 53 52 51 50 50 50 50 47 45 45 45 47 48 48 48 48 48 47 46 45 44 44 42 42 46 46 46 44 39 37 36 36 36 36 36 35 30 29 29 30 31 33 30 31 29 28
51 51 51 51 52 53 53 53 52 52 52 52 53 52 52 52 52 51 51 50 50 50 49 44 42 43 43 43 45 48 48 49 48 48 47 46 45 44 43 42 42 45 43 42 38 35 35 36 35 35 35 35 36 36 36 33 34 32 31 29 29 29 29
50 49 49 50 51 52 52 52 50 49 49 49 49 50 51 51 51 50 50 50 50 48 48 41 38 39 41 41 42 44 47 48 49 48 48 47 46 44 42 42 41 40 40 43 39 30 30 33 35 35 36 36 36 35 34 35 37 35 32 30 29 30 30
47 47 47 47 48 50 51 50 48 47 47 47 49 49 49 49 50 49 49 49 47 41 41 40 38 38 39 40 40 41 44 45 45 45 46 46 44 42 41 41 41 39 39 40 34 31 32 32 33 32 32 33 34 37 37 36 35 35 36 33 30 30 31
42 42 42 42 42 44 47 44 44 45 46 47 48 48 48 47 46 46 46 45 42 37 37 38 38 39 40 41 41 42 42 42 41 41 41 43 42 41 42 42 39 39 40 40 40 34 34 34 34 35 32 33 34 35 36 36 35 34 36 34 32 32 32
39 39 38 38 38 39 39 39 40 41 40 40 40 41 40 42 44 43 42 40 38 35 36 38 38 39 39 40 40 41 40 39 39 39 39 40 40 40 41 42 41 41 41 41 41 37 38 38 36 35 36 36 35 35 37 38 37 38 37 35 34 34 34
37 37 36 35 36 37 37 36 37 38 36 36 38 39 39 41 41 41 39 36 36 34 35 37 38 38 38 38 39 40 40 40 39 39 39 40 40 41 41 40 40 39 38 37 37 37 37 38 37 36 35 34 34 34 34 35 37 36 36 35 35 35 34
37 37 35 34 35 36 35 35 35 36 37 37 38 39 39 41 39 39 38 35 35 37 35 36 37 38 38 38 40 39 38 38 37 37 38 37 37 38 41 45 41 35 34 36 35 35 36 37 35 34 33 33 33 32 31 32 33 33 35 34 34 33 33
36 36 35 35 36 36 36 37 36 37 37 38 38 39 40 40 38 37 36 36 40 35 33 36 37 37 37 38 39 38 37 36 35 34 35 34 33 34 34 38 39 37 36 35 34 34 34 34 32 32 32 31 30 28 30 32 31 30 30 31 29 31 31
37 37 35 36 38 37 39 39 37 38 36 39 39 38 39 39 38 35 34 33 33 33 33 33 36 37 38 37 38 37 35 34 34 33 34 34 33 32 32 33 36 33 33 33 33 33 34 33 31 32 32 31 30 29 31 31 34 29 29 30 29 29 31
38 37 37 36 38 39 39 38 37 38 39 38 38 38 37 37 36 34 32 31 31 32 34 33 35 37 37 37 37 36 33 32 32 34 34 34 32 31 31 32 33 34 33 33 33 33 34 34 34 33 31 31 31 32 32 28 32 34 30 31 31 30 31
39 39 40 39 38 38 39 39 38 38 37 37 37 36 35 36 35 33 32 31 31 31 35 37 34 36 36 36 35 36 34 34 34 34 34 32 31 30 30 31 32 33 33 33 33 33 34 34 35 35 32 32 33 32 32 33 30 30 29 30 28 29 29
39 41 41 40 39 38 38 39 39 39 38 37 37 36 35 34 34 32 31 30 29 29 30 34 37 35 35 34 35 35 35 35 36 36 33 33 31 31 31 31 34 35 33 33 33 33 33 33 35 33 33 33 33 33 33 32 31 29 29 28 29 29 28
37 37 38 37 35 34 35 38 39 38 39 39 37 36 34 33 34 33 31 29 29 29 29 29 34 35 34 34 35 35 35 35 36 36 35 34 32 32 31 32 35 34 34 34 33 33 33 33 32 33 33 33 33 33 33 31 28 29 29 28 28 27 28

ECMWFFLT1_sfc_dewp_015.txt.gz
Dewpoint
58 56 57 57 57 55 55 55 56 56 57 59 62 63 65 63 64 64 64 64 62 62 61 61 61 61 61 63 64 63 62 61 61 60 60 59 59 59 60 60 60 61 61 60 56 51 51 47 43 43 47 49 49 48 46 44 45 47 50 49 45 44 48
56 56 56 55 54 56 55 55 56 55 57 59 59 62 63 64 64 63 63 63 63 63 61 60 62 61 62 62 63 62 62 62 62 62 61 59 59 59 59 60 60 59 59 60 60 56 47 43 41 42 43 46 47 47 47 45 43 45 45 45 42 42 47
57 56 55 54 54 55 54 55 55 56 56 58 59 59 61 61 63 63 63 62 63 62 61 61 61 62 62 62 63 63 63 63 63 62 62 61 61 61 61 59 56 56 56 53 48 44 45 43 39 40 45 45 42 45 48 43 41 40 40 43 43 39 43
58 57 56 55 53 54 53 54 55 55 56 56 58 59 59 59 61 61 62 62 62 62 60 61 62 60 61 61 61 62 62 62 62 62 62 61 61 61 59 55 52 51 49 47 46 43 38 41 42 42 44 42 42 44 46 45 40 36 35 40 40 41 43
58 57 57 56 54 53 54 53 54 55 55 56 58 57 58 58 60 60 60 60 59 59 59 59 58 58 58 58 59 60 60 61 61 61 60 59 59 57 56 53 51 49 47 43 39 41 38 39 42 43 41 40 39 37 40 46 40 37 35 34 33 37 39
58 58 57 56 55 53 53 53 54 54 54 55 56 57 57 58 58 59 59 58 58 57 57 56 56 56 56 56 57 58 58 59 59 59 56 56 54 50 49 52 46 45 44 46 45 42 45 45 43 42 40 41 42 39 38 41 39 36 34 33 31 32 33
58 58 57 55 55 54 54 54 55 55 54 57 57 56 55 55 56 57 57 57 56 56 56 56 55 54 55 52 55 56 55 55 55 55 53 54 54 54 53 48 48 46 47 48 46 46 44 42 39 42 43 44 42 33 34 35 38 35 35 31 30 28 31
56 56 56 56 55 54 53 54 55 55 55 56 55 55 54 55 56 56 56 55 55 55 55 55 54 54 55 51 52 54 52 52 52 53 52 53 52 51 53 50 49 48 47 45 46 43 42 44 42 43 43 42 41 39 36 34 34 37 36 33 27 26 29
55 55 55 54 54 54 54 54 54 55 54 54 54 54 54 54 55 54 54 54 53 54 54 53 53 52 54 53 51 52 50 49 53 53 51 52 52 53 52 51 46 44 48 45 44 45 43 45 44 44 45 41 39 37 38 37 36 34 35 33 28 27 26
57 55 55 55 57 56 54 54 54 53 54 54 54 54 54 54 54 54 54 53 53 53 53 52 52 52 53 52 51 51 50 50 50 49 51 49 51 50 50 51 47 46 46 49 47 47 48 48 46 47 40 40 39 37 35 35 39 38 34 29 23 25 27
57 57 58 56 55 54 53 53 53 53 53 54 54 54 54 54 54 53 53 53 53 53 53 51 50 50 51 49 50 48 48 49 48 48 49 48 50 50 50 49 48 46 49 48 47 50 49 49 47 44 42 42 41 37 37 35 38 41 38 33 26 24 26
55 55 57 58 57 55 53 52 53 54 54 53 53 53 53 52 53 52 53 52 52 52 52 52 51 50 50 49 50 47 49 49 46 47 49 50 50 50 49 49 49 48 51 51 51 50 49 48 46 44 44 44 43 44 41 39 38 38 41 33 31 27 27
55 57 58 57 54 53 52 52 53 53 54 53 54 53 51 51 52 51 51 51 51 52 52 52 50 49 50 51 49 47 49 48 45 45 45 47 44 48 47 46 47 46 47 45 46 49 47 48 49 44 44 44 43 45 42 40 39 39 40 30 30 28 28
58 57 56 56 55 54 53 52 52 53 53 54 54 53 51 51 50 50 49 49 50 51 52 52 52 50 49 50 50 50 48 46 44 46 47 48 46 47 42 42 44 46 48 45 45 46 44 45 47 46 45 42 41 44 41 41 38 38 39 36 33 26 31
57 57 56 55 55 54 54 53 53 52 53 54 53 51 50 52 51 50 49 48 49 49 49 50 51 50 48 50 51 51 50 46 45 46 48 43 47 47 49 42 41 44 45 42 46 36 39 40 38 37 39 40 38 40 42 35 34 36 36 37 32 29 29
56 56 56 55 55 54 54 54 52 52 52 52 53 53 52 52 50 49 49 49 48 49 49 49 51 50 51 50 49 52 52 50 48 47 47 45 40 44 46 45 44 46 47 46 47 44 45 40 36 35 40 39 39 36 31 32 36 36 36 32 35 29 33
56 56 55 55 55 55 55 54 52 52 51 52 51 53 52 50 50 50 49 48 48 48 49 50 50 48 48 49 48 49 50 52 50 50 47 45 41 45 44 45 46 48 47 45 44 45 44 45 42 39 42 42 40 35 38 39 38 38 37 34 32 24 29
57 57 57 56 55 55 55 54 53 51 52 52 52 52 52 50 50 49 50 48 47 48 48 49 49 50 50 50 49 49 49 49 51 50 50 49 49 48 47 46 45 46 47 45 47 44 44 46 38 41 40 37 35 36 38 36 36 38 39 37 36 34 35
57 57 58 57 56 56 56 56 55 54 51 51 53 52 51 51 49 48 48 48 49 49 50 52 51 51 52 52 52 52 51 50 49 48 49 49 47 49 50 47 48 48 47 47 47 47 47 45 43 43 40 35 32 36 39 39 39 40 37 35 37 36 38
57 57 57 57 57 55 55 56 54 53 53 52 52 52 51 51 52 50 51 51 51 53 53 52 54 55 54 54 54 53 53 52 51 51 50 48 48 49 49 48 50 50 48 47 48 48 48 49 47 44 44 44 33 37 38 36 35 38 39 38 36 37 36
56 56 56 57 57 56 55 55 54 55 54 54 53 52 53 53 56 55 55 53 54 54 54 54 56 55 54 54 55 55 54 55 53 53 54 51 50 50 49 49 49 49 49 48 49 49 50 48 46 46 45 42 40 40 39 39 39 38 39 39 36 35 35
56 55 55 55 56 56 56 55 55 54 55 55 57 55 55 55 55 55 55 56 55 57 56 56 56 58 57 55 55 55 55 53 54 54 53 53 53 52 51 51 50 50 50 50 47 46 48 47 47 45 45 43 41 40 39 38 39 38 37 38 37 38 36
55 55 55 55 55 55 55 55 55 54 54 55 56 56 56 56 56 56 56 55 57 58 58 57 54 50 51 54 54 54 54 54 53 53 53 53 53 54 53 53 53 50 48 47 45 42 41 42 43 45 45 44 40 40 40 40 38 38 39 37 37 37 37
55 55 55 55 56 55 54 55 54 54 56 56 56 55 56 56 56 57 56 56 56 56 57 55 48 46 46 46 52 54 54 54 54 54 54 54 54 54 54 53 54 52 49 48 47 42 41 40 40 39 40 40 41 41 40 40 39 40 37 37 38 37 35
54 54 55 54 54 54 55 55 54 55 57 57 56 56 56 55 55 56 56 54 55 56 55 50 45 45 44 43 46 54 55 55 55 54 54 54 53 53 54 54 54 54 53 52 50 50 45 40 39 38 36 36 35 36 36 45 42 39 40 37 37 37 36
53 53 53 53 54 55 54 54 54 55 55 56 56 55 55 57 55 55 55 54 55 55 55 45 44 43 43 43 42 47 54 54 54 54 54 54 53 53 53 53 53 54 51 48 47 48 49 47 38 37 37 38 37 36 34 34 36 46 41 39 38 39 37
53 53 53 53 54 53 54 54 54 55 55 55 55 55 56 55 55 55 55 55 55 55 55 44 42 43 42 42 40 43 51 52 53 52 52 51 52 52 52 51 50 51 50 49 49 49 47 47 42 39 40 39 39 42 38 36 36 36 39 41 39 38 41
53 53 53 53 54 53 53 53 55 55 55 55 55 55 54 55 55 55 55 55 55 54 55 42 41 42 41 39 38 42 53 52 51 50 49 49 49 49 48 49 49 48 47 45 44 44 45 44 42 41 40 40 41 41 42 42 41 40 38 39 38 38 39
52 52 53 53 53 54 55 55 54 54 55 55 54 55 55 55 55 55 55 55 54 53 52 40 40 39 39 38 42 51 51 50 49 48 47 47 47 47 47 47 46 46 45 42 38 36 38 39 39 39 40 40 40 40 38 37 37 38 42 41 40 39 39
49 50 51 51 52 53 54 53 54 53 52 53 53 53 54 54 54 55 54 54 54 54 50 41 38 38 38 40 44 49 49 46 46 46 45 45 45 47 47 45 44 43 43 41 38 35 35 37 38 39 40 41 41 39 38 37 36 36 35 35 34 34 35
45 47 47 48 50 52 53 54 53 51 54 53 53 52 51 52 52 53 52 54 53 52 49 42 38 39 39 40 44 48 46 45 45 44 43 43 43 42 41 43 45 43 44 42 36 36 37 39 40 41 41 40 39 38 37 37 37 37 35 35 35 34 34
42 44 44 46 48 50 51 51 51 50 51 51 51 50 49 49 49 49 51 52 48 50 47 42 38 38 39 39 43 48 44 43 43 43 41 39 40 39 38 37 39 39 40 38 34 35 36 40 42 41 41 40 38 38 36 36 36 36 36 37 37 38 37
42 43 43 44 44 46 47 47 47 47 47 48 47 48 48 48 47 45 46 47 47 49 48 47 43 38 38 38 40 46 45 44 43 42 41 38 38 38 37 35 35 34 34 34 34 34 34 36 40 40 39 38 37 36 35 36 37 36 35 34 36 36 35
42 43 43 43 43 43 44 47 46 47 47 47 47 46 46 45 44 43 43 45 45 47 48 47 43 37 38 38 38 42 45 45 44 41 39 37 37 37 35 34 34 34 33 34 34 34 34 34 35 39 38 37 38 37 35 36 37 34 36 35 34 34 34
44 44 44 44 44 43 44 45 47 48 47 48 48 46 45 43 42 42 42 43 45 45 44 44 43 38 37 37 37 39 44 46 43 41 39 37 36 36 35 34 33 34 33 33 33 33 34 34 34 35 36 33 33 34 36 35 35 34 34 33 32 31 32
42 44 45 45 45 44 44 44 46 48 48 47 45 43 43 42 41 41 41 40 41 43 43 41 39 41 36 36 36 36 38 40 36 43 40 38 37 36 36 36 34 35 33 33 34 34 34 34 34 35 33 33 33 33 34 33 33 34 32 32 33 32 32
39 42 42 42 42 45 45 44 45 46 47 47 45 43 41 41 40 39 39 38 39 38 40 40 37 37 38 35 35 36 36 35 37 42 41 39 37 35 36 37 35 34 34 34 33 33 33 34 34 33 33 33 33 33 33 34 32 34 32 31 31 30 31

ECMWFFLT1_sfc_dewp_021.txt.gz
Dewpoint
58 56 56 57 57 54 55 54 53 53 55 54 55 55 56 55 57 57 57 57 54 54 53 54 56 57 57 58 59 60 59 59 60 60 58 58 58 57 61 60 60 60 59 59 58 58 52 47 47 48 49 51 51 51 49 48 48 50 52 51 49 50 53
54 54 53 52 52 55 55 53 53 50 54 56 55 57 57 55 55 56 56 55 55 54 49 49 54 53 58 62 62 62 61 60 60 61 60 58 58 58 59 60 57 57 59 60 60 57 54 47 44 46 46 47 50 49 50 49 48 49 48 46 45 47 51
54 53 52 52 54 55 54 55 52 51 51 55 57 56 56 55 55 55 55 56 56 54 53 53 56 59 63 63 63 63 63 62 62 61 60 59 59 59 57 59 57 56 57 58 59 54 52 46 44 42 45 46 44 46 49 46 45 45 44 46 46 42 45
54 54 54 52 51 54 53 52 53 52 53 53 56 58 56 56 57 57 57 56 57 57 55 54 57 58 62 63 63 63 63 62 60 61 61 60 59 58 56 55 56 53 53 53 55 55 50 45 42 42 44 41 40 44 45 43 42 38 38 43 43 44 46
55 54 54 53 51 52 52 51 52 52 53 54 56 56 56 55 57 58 58 57 56 57 56 56 56 56 59 60 62 62 62 62 62 61 61 60 59 58 58 57 55 53 50 48 45 46 44 43 44 42 38 37 37 36 38 43 37 36 34 33 35 40 43
54 56 53 52 52 50 49 51 50 50 50 53 54 54 54 55 55 57 57 56 56 57 57 56 57 57 57 57 61 62 61 60 60 60 59 61 60 58 53 51 47 46 46 45 47 45 44 46 44 38 34 36 38 37 35 36 32 28 28 27 29 33 36
59 58 56 53 52 51 49 50 50 49 51 54 54 53 54 54 56 57 57 57 56 56 57 57 56 54 55 53 60 61 60 61 60 58 58 56 55 54 51 45 44 41 41 42 43 43 44 44 40 40 40 39 38 34 33 31 31 25 25 25 27 31 36
58 56 55 53 53 51 51 51 52 52 53 54 53 55 54 56 56 56 56 56 55 57 56 56 55 55 55 53 54 55 54 53 52 53 52 52 50 48 48 43 42 41 39 36 36 37 38 43 43 42 41 38 39 37 35 32 32 30 27 28 28 30 36
58 58 55 51 52 53 53 51 52 53 54 53 53 53 53 54 54 52 52 53 54 55 55 54 54 53 54 53 52 53 51 47 51 50 50 50 49 48 46 44 43 40 43 39 41 42 37 42 44 43 42 38 36 35 36 35 33 29 30 28 29 30 32
59 57 54 54 54 55 55 54 54 54 55 54 53 53 53 53 52 51 51 51 53 54 54 53 52 51 50 50 49 49 49 49 49 47 48 48 49 49 48 47 44 43 43 46 43 43 44 45 42 43 41 40 41 36 36 37 37 33 31 30 28 29 30
59 58 57 55 55 55 56 57 57 53 53 53 52 53 55 53 52 49 49 49 50 50 50 49 47 46 47 45 46 46 46 47 46 46 46 46 48 48 48 47 48 47 49 49 48 49 47 46 43 43 41 41 41 41 39 37 39 39 37 37 32 27 29
60 58 55 53 52 51 51 52 54 54 53 52 51 54 53 46 48 47 46 46 48 48 48 46 45 45 44 44 44 41 44 45 44 46 48 48 50 51 50 49 49 48 50 49 49 48 48 46 43 41 42 45 46 48 43 42 41 43 42 41 37 32 31
58 54 52 53 51 50 50 51 53 55 53 50 53 53 46 44 45 43 43 43 44 45 44 44 44 43 44 43 42 41 43 44 42 43 44 46 44 49 48 47 47 47 47 45 47 48 47 48 48 44 45 46 46 48 46 44 43 42 42 40 38 33 33
57 54 51 52 53 52 52 51 51 53 52 51 52 50 46 44 42 43 40 40 40 43 44 44 45 45 43 42 42 43 41 40 40 43 45 46 44 46 44 45 45 47 47 46 45 45 43 43 45 46 45 43 43 45 44 45 43 42 44 44 41 32 37
57 55 54 54 54 54 54 53 54 51 52 50 48 44 44 45 44 42 39 38 39 39 41 42 43 44 42 44 46 45 44 41 42 43 45 44 46 44 46 43 41 44 43 41 44 37 37 40 39 40 42 43 41 44 46 43 42 42 44 44 40 35 37
56 56 56 56 55 53 57 56 54 51 49 49 47 44 45 46 44 42 41 42 38 38 40 41 45 44 45 45 44 46 46 44 44 45 44 43 40 44 45 45 44 46 46 46 46 45 43 40 38 37 42 42 43 43 40 41 43 42 43 42 43 38 38
54 55 55 55 54 56 56 55 53 51 47 48 46 47 45 43 44 45 45 43 42 40 41 45 45 43 42 43 44 45 45 46 45 45 42 40 39 43 45 46 47 47 48 48 46 45 43 44 44 42 44 46 46 44 47 47 45 45 43 41 42 36 37
54 55 55 53 54 56 56 54 54 49 49 48 47 48 46 43 43 43 47 44 43 43 43 44 45 45 47 46 45 47 46 46 48 47 46 45 49 46 47 48 47 47 48 49 49 47 46 47 43 44 44 42 42 45 47 46 45 43 45 45 44 43 43
56 55 55 55 54 55 55 54 53 53 48 49 47 49 49 44 41 41 42 41 43 43 43 43 43 45 47 48 49 49 49 50 50 48 49 48 46 48 49 48 49 49 49 50 50 49 49 49 46 46 45 43 40 42 46 46 47 47 45 44 45 44 45
55 56 55 55 55 55 55 54 52 51 51 50 50 49 48 46 45 42 41 40 41 43 43 43 45 45 45 47 49 49 51 51 51 51 50 49 49 49 49 49 50 50 50 50 50 50 50 50 50 50 49 48 44 44 44 45 43 42 44 45 44 45 44
56 56 55 55 55 56 56 54 53 51 51 51 51 50 47 47 48 44 44 41 42 43 43 43 43 44 45 47 50 52 53 53 53 54 54 53 53 52 52 52 51 51 50 50 52 51 51 50 50 51 50 49 49 48 46 45 45 43 43 44 43 42 43
57 57 55 56 56 56 56 54 53 51 53 53 54 51 50 48 47 46 44 45 42 43 45 45 45 47 47 49 52 53 55 54 55 54 54 54 54 54 54 55 54 53 59 53 49 50 49 48 54 52 52 51 49 48 47 45 44 43 43 44 43 44 42
57 58 57 57 56 56 56 55 54 54 54 54 53 53 52 51 48 48 46 45 46 47 47 48 57 49 49 51 52 52 56 55 54 54 54 54 55 57 57 56 57 54 51 50 48 45 44 43 45 50 52 52 51 49 48 46 45 45 44 42 41 41 40
57 56 55 56 57 56 56 56 56 54 54 54 54 54 50 52 52 50 47 48 48 50 51 55 46 44 44 46 52 53 52 54 53 54 53 53 53 56 57 54 57 58 54 51 51 44 43 43 41 40 40 42 45 53 49 47 46 46 44 44 41 42 41
54 55 56 55 55 55 56 56 56 56 56 56 56 55 55 52 53 53 52 50 50 53 54 49 44 44 45 45 48 54 53 52 53 53 51 51 52 56 57 57 58 57 56 58 55 52 47 41 40 38 37 37 36 36 37 44 46 46 46 44 44 44 43
53 54 54 54 55 55 54 55 56 56 57 57 57 55 56 55 56 53 54 51 52 54 57 43 43 43 44 44 46 49 51 52 51 51 50 49 50 52 55 52 51 52 52 53 52 49 53 47 40 38 38 38 37 35 33 34 36 41 43 44 44 43 43
50 52 54 54 54 53 54 54 55 56 56 56 56 56 57 56 54 53 54 54 55 57 56 45 42 43 43 42 44 47 52 54 53 51 51 52 53 52 51 50 46 48 53 51 51 53 53 50 47 44 44 44 42 44 35 35 34 34 35 39 42 42 46
50 51 53 53 54 53 53 54 55 56 56 57 56 55 59 57 55 54 54 55 56 57 55 45 43 42 42 42 43 45 53 53 54 55 56 55 56 54 51 51 48 49 52 51 52 51 53 52 49 48 47 45 44 42 43 44 44 45 43 42 43 44 45
42 43 47 50 52 53 54 55 55 56 56 56 56 56 56 57 57 55 55 56 55 52 53 46 45 43 42 42 43 52 52 52 56 55 55 56 53 50 49 49 48 50 49 46 39 36 39 55 49 48 46 45 46 45 41 37 36 37 44 46 46 46 45
41 41 42 44 46 50 51 52 54 55 56 56 55 56 56 56 57 56 56 55 54 55 56 49 43 44 43 42 44 52 52 53 53 54 52 51 48 48 52 51 47 48 46 44 40 35 35 38 48 47 47 47 46 43 40 39 36 35 35 35 34 35 35
39 41 41 41 42 45 47 48 49 51 52 53 55 56 56 55 55 55 56 55 55 56 56 51 41 43 42 41 46 53 51 51 51 51 48 46 49 50 48 44 50 46 44 43 36 36 36 44 47 46 46 45 44 43 42 40 40 39 36 35 34 34 33
39 40 41 42 44 44 45 46 47 48 49 51 52 53 54 54 54 54 54 55 54 55 55 50 40 41 41 41 47 52 51 49 49 48 44 44 47 47 45 42 40 44 44 43 35 35 35 41 47 45 45 44 43 43 44 44 43 42 41 41 39 41 39
38 40 41 42 43 43 44 45 46 47 49 48 48 51 52 53 54 54 54 54 57 55 55 54 46 40 41 41 43 53 51 47 47 48 48 48 42 42 43 40 38 35 35 35 35 35 35 36 49 45 44 43 42 39 44 44 43 42 42 41 41 42 42
35 38 39 41 42 42 43 43 44 45 46 47 47 48 51 52 53 54 54 54 54 55 54 55 48 40 40 41 42 44 49 48 46 46 49 46 48 43 39 37 37 36 34 35 35 34 35 35 37 46 45 42 40 44 39 42 42 32 38 39 40 39 39
35 37 37 38 41 43 43 43 43 44 43 44 47 49 49 50 51 52 52 52 53 53 53 51 52 41 41 41 42 40 52 51 48 45 51 46 41 39 38 38 35 35 34 34 34 35 35 35 35 37 39 32 31 32 40 36 39 39 39 37 34 32 33
35 35 36 37 37 39 40 41 43 43 43 45 45 47 50 50 50 49 50 51 52 52 54 52 46 46 40 41 41 40 38 45 44 49 46 43 39 39 40 39 36 36 34 34 34 34 34 34 34 35 32 31 30 30 33 34 34 35 32 33 35 33 31
33 34 34 34 35 36 36 40 41 41 40 42 43 43 44 48 49 47 48 49 51 50 51 53 44 43 44 41 43 39 38 40 44 49 44 40 40 40 39 36 35 34 34 34 34 34 33 34 34 32 32 31 32 33 36 34 33 36 33 32 31 32 33

ECMWFFLT1_sfc_dewp_024.txt.gz
Dewpoint
59 59 60 59 60 59 62 62 58 60 60 57 63 60 61 60 63 62 63 64 63 61 62 62 62 62 62 61 62 61 61 61 60 59 60 60 60 59 63 62 62 60 60 59 60 59 51 48 47 48 48 51 52 52 50 49 51 53 55 56 57 58 56
58 58 56 58 59 60 60 62 58 55 58 62 59 61 59 60 62 58 62 63 61 61 54 58 60 58 62 63 64 65 63 62 62 63 62 60 60 59 60 61 60 60 61 60 60 59 56 48 46 46 47 51 53 53 51 50 49 51 51 51 50 50 50
59 59 56 58 59 61 57 60 62 61 59 63 66 62 63 58 60 63 59 59 62 58 58 58 59 61 64 63 63 64 64 62 63 63 61 61 61 61 61 61 60 58 58 59 59 58 56 52 46 43 46 47 47 49 53 52 49 49 45 46 46 46 47
59 58 57 57 58 61 57 60 65 60 64 60 63 64 60 59 61 61 63 59 60 61 59 58 60 62 65 66 65 64 63 63 63 63 63 63 61 60 58 61 61 61 58 56 56 55 54 51 45 45 44 41 44 48 51 48 43 41 42 47 47 46 47
59 57 57 57 57 57 57 59 59 63 60 61 65 61 61 61 63 63 63 61 62 62 61 61 60 60 64 65 64 64 63 64 64 63 63 61 59 59 58 58 58 58 58 56 55 56 55 48 47 45 40 38 37 36 38 41 34 34 36 39 42 45 46
60 59 57 58 60 58 59 58 57 58 59 59 60 59 60 62 61 63 64 60 60 60 60 58 59 60 61 62 63 62 61 61 63 62 60 60 61 60 58 59 57 55 55 56 56 55 55 52 47 41 37 39 39 37 35 38 32 28 30 31 34 39 43
61 60 59 57 61 58 59 58 60 58 59 59 59 60 61 62 62 60 60 60 59 61 61 62 61 59 60 59 61 61 60 61 61 60 60 60 60 58 60 51 49 48 49 54 52 55 53 52 52 45 43 41 39 35 33 27 24 24 27 30 35 38 41
61 61 61 58 60 57 57 60 61 61 60 58 60 60 59 59 61 61 60 61 61 61 61 60 60 58 59 56 57 60 59 59 58 58 57 56 53 51 53 48 46 47 55 52 54 50 51 56 51 46 41 41 43 40 36 31 28 28 28 30 33 37 42
60 61 58 58 59 60 60 60 60 60 59 58 58 59 60 59 57 58 59 60 60 61 61 61 59 58 59 58 56 54 52 52 55 53 52 53 55 55 54 54 50 49 50 50 50 48 50 49 48 50 48 45 43 37 40 38 34 29 29 29 31 35 38
61 60 58 59 59 59 60 61 61 59 58 58 57 60 60 60 61 58 57 58 60 59 57 56 56 57 57 56 55 55 54 54 53 52 55 54 54 52 50 51 51 50 50 52 51 52 51 53 53 58 47 49 49 43 40 39 38 38 36 32 30 33 35
61 59 58 58 59 60 61 60 58 58 57 57 57 58 60 59 57 56 57 58 58 58 58 57 53 53 56 55 54 53 53 54 53 54 54 54 54 55 54 51 51 51 53 52 53 52 50 49 50 52 48 49 49 48 48 39 42 44 43 38 34 30 33
61 59 58 58 59 59 59 59 58 58 58 57 56 57 57 56 57 56 56 55 57 56 54 54 55 54 52 52 52 51 53 53 52 52 54 54 54 54 53 53 54 54 55 54 53 53 54 58 51 46 51 51 51 51 43 43 43 45 48 43 42 35 36
59 57 57 57 56 56 56 57 58 58 58 56 56 56 56 54 53 52 54 53 54 54 53 54 54 53 53 51 52 51 51 51 49 50 52 54 49 53 52 52 53 53 54 52 50 50 50 52 52 51 51 51 49 53 49 45 43 45 48 46 43 37 37
60 56 56 56 54 55 55 57 58 58 55 57 57 56 54 53 49 51 49 50 50 53 54 54 54 53 52 54 51 50 50 48 47 50 52 52 50 52 49 49 50 51 52 51 52 54 50 47 52 53 51 49 48 48 50 46 44 45 47 50 50 40 43
58 56 57 57 55 54 55 56 58 57 58 57 56 54 52 54 52 50 46 47 50 49 52 52 52 53 52 53 52 53 52 50 48 49 51 50 51 50 53 49 49 52 51 50 49 42 41 45 42 41 49 51 46 51 48 49 45 45 45 46 47 39 43
58 57 58 57 56 54 55 56 54 56 56 57 57 54 52 54 52 50 48 49 46 49 50 51 54 54 53 52 51 53 54 51 52 53 52 49 45 50 50 50 50 51 54 52 52 49 49 47 42 43 45 46 48 47 46 47 47 46 45 46 48 41 41
59 57 57 57 57 57 56 56 54 54 52 53 50 52 54 51 53 53 50 46 46 48 49 53 53 49 51 52 52 52 50 51 52 52 50 47 45 50 50 51 52 53 53 52 53 51 52 51 53 48 47 49 51 48 50 51 50 49 48 45 43 39 40
59 59 58 57 57 59 58 57 57 52 53 53 52 54 50 51 52 52 53 47 44 46 49 50 51 51 54 53 53 54 51 50 53 52 52 49 52 51 52 52 50 52 53 53 52 53 51 51 47 50 48 47 46 49 53 51 49 49 51 48 50 46 46
57 58 58 58 58 60 58 57 57 56 50 49 55 56 51 51 45 46 48 49 46 45 45 50 48 47 48 53 54 54 53 53 53 52 54 50 50 53 54 53 53 52 52 53 55 54 54 51 50 50 50 50 45 48 52 51 51 52 47 49 46 48 48
58 58 59 59 59 59 60 60 56 56 54 52 52 55 54 51 52 48 46 49 50 48 47 46 50 52 50 51 52 52 56 55 55 56 53 53 53 54 54 54 55 55 54 53 53 53 52 53 53 53 53 53 49 52 51 49 46 47 50 49 47 48 46
58 59 59 59 57 58 58 60 60 59 58 55 52 49 53 54 52 51 49 47 50 50 50 48 48 50 50 54 55 56 56 56 55 56 55 55 56 55 57 56 56 55 55 54 55 56 57 56 54 53 56 53 52 52 50 51 49 47 47 48 46 46 46
59 59 57 58 58 59 59 60 59 59 59 59 57 52 52 52 54 50 51 50 48 50 50 50 49 49 49 50 53 55 55 54 56 56 56 56 57 57 58 59 57 56 54 53 49 49 49 50 55 55 56 54 53 51 51 50 48 47 47 47 46 47 45
59 59 60 60 60 60 59 61 60 58 58 58 58 58 56 53 50 50 50 50 50 53 51 53 50 46 47 50 52 53 56 56 57 55 56 56 56 57 57 57 59 56 54 52 49 46 44 44 46 52 52 53 54 53 51 50 48 48 48 47 46 46 45
57 57 60 59 60 60 60 61 61 59 58 58 58 59 58 56 56 53 49 49 51 54 54 55 43 42 44 45 52 56 57 57 56 56 55 55 56 57 57 56 57 58 57 55 54 47 44 42 41 40 41 43 47 52 51 52 49 49 48 48 47 45 46
56 57 59 58 57 59 60 59 59 59 60 59 59 58 59 57 56 57 58 55 55 54 54 48 41 43 44 45 49 56 56 56 56 55 54 53 54 56 57 57 57 58 58 58 59 56 47 41 39 38 38 37 37 37 40 44 46 49 48 47 47 47 46
55 57 57 57 59 59 59 58 58 58 58 60 60 59 60 59 57 58 58 57 55 54 51 42 42 42 43 44 46 51 54 55 53 54 53 53 52 56 57 58 56 57 55 56 57 56 52 44 40 39 39 38 37 35 34 34 35 45 45 45 45 47 47
53 55 57 57 58 57 57 56 58 58 57 58 60 59 59 58 59 58 58 57 57 55 54 49 43 43 43 43 43 48 54 54 54 53 53 52 53 55 55 55 55 54 54 55 54 55 54 48 44 42 42 44 42 38 35 34 34 34 38 44 43 45 48
51 53 56 57 57 55 56 55 56 57 56 57 58 57 57 59 58 58 58 58 58 56 55 48 44 42 43 43 42 45 54 55 55 55 53 53 54 55 55 55 54 53 53 55 54 53 53 50 48 48 47 48 44 45 45 43 41 45 47 46 44 48 48
43 44 46 54 55 55 55 58 57 58 58 58 58 58 58 58 57 56 57 59 56 56 56 48 45 42 42 42 42 51 53 54 55 54 54 56 57 55 55 55 52 52 54 50 40 37 42 53 50 49 48 47 45 41 37 35 36 36 40 42 42 44 41
43 42 44 45 44 48 55 55 57 57 57 57 58 58 58 58 57 57 57 57 56 55 55 50 45 44 42 41 44 51 52 51 51 52 54 56 57 54 55 53 51 53 51 51 40 36 36 40 50 49 48 47 46 43 41 41 36 35 35 35 35 35 35
38 41 42 42 45 47 47 49 51 55 55 55 56 56 56 57 57 57 56 56 56 56 55 52 45 44 43 41 45 51 52 51 50 52 56 55 53 52 50 46 49 52 50 46 35 36 36 46 50 49 48 47 45 42 42 42 42 39 35 35 35 34 33
37 40 41 43 46 46 46 46 47 48 51 54 53 53 54 56 55 55 56 56 54 55 55 52 43 43 42 42 45 51 52 51 51 51 54 52 52 49 44 42 44 47 47 41 35 36 37 45 50 49 48 47 45 44 43 42 42 41 41 40 39 42 39
39 40 39 41 44 46 46 46 47 47 48 46 46 48 50 50 53 55 56 55 55 55 56 56 53 44 43 42 43 50 53 53 51 52 52 46 48 46 43 43 40 35 35 35 35 35 36 39 50 49 48 46 46 46 45 46 46 45 45 44 43 42 43
37 37 37 38 40 41 42 44 46 47 47 46 46 47 49 51 52 53 55 56 56 56 55 55 53 47 44 42 41 45 53 53 53 53 52 48 46 45 44 44 42 37 35 35 35 35 36 37 39 42 40 38 39 43 40 42 41 38 40 40 40 41 42
39 40 38 38 38 39 39 40 42 45 45 45 46 47 48 47 47 49 52 55 55 56 55 52 54 47 44 42 41 41 50 54 53 51 49 47 46 47 45 41 39 36 35 35 35 35 35 34 34 34 31 31 32 32 36 41 42 42 42 40 40 39 38
38 38 39 39 38 38 38 38 40 40 41 43 44 44 45 46 48 49 50 53 53 55 56 54 48 49 43 41 40 41 44 47 44 50 48 46 47 48 45 42 39 36 35 34 34 34 34 33 33 31 32 32 32 31 35 36 38 39 37 37 39 36 35
37 37 37 37 37 37 37 38 38 38 38 40 41 42 42 44 45 45 47 50 52 53 55 55 48 45 44 40 40 41 41 40 44 50 49 47 49 48 43 39 36 34 34 34 34 33 33 33 31 32 32 32 31 34 38 39 37 38 36 34 34 34 36

ECMWFFLT1_sfc_dewp_030.txt.gz
Dewpoint
55 55 56 57 57 58 59 59 60 59 60 61 62 61 62 62 61 61 61 61 62 62 62 62 62 61 61 61 60 59 58 58 57 57 56 56 57 56 58 57 57 57 56 54 49 47 45 45 45 47 49 49 51 54 58 58 59 59 57 51 49 49 49
55 55 56 57 56 56 56 56 58 58 58 59 61 61 60 62 62 61 60 60 60 61 62 61 60 62 61 60 60 59 58 58 57 56 57 57 56 57 57 55 56 56 55 53 52 50 46 44 44 45 44 46 47 50 55 57 57 53 49 49 49 48 50
55 55 55 54 54 54 55 55 55 56 56 56 57 57 57 59 59 61 61 61 61 61 61 60 60 60 60 60 60 59 58 58 57 57 57 57 57 57 57 57 54 53 52 51 51 48 47 47 44 44 44 43 44 46 52 53 50 48 47 46 45 44 44
54 53 52 52 53 54 54 53 54 56 56 56 56 56 56 57 57 58 56 56 58 61 61 60 59 60 60 60 60 59 58 58 58 58 57 57 57 57 57 57 55 52 51 50 50 50 47 45 44 45 44 43 45 48 48 50 48 45 44 44 42 42 42
52 52 51 50 51 53 53 53 54 55 55 55 55 55 56 57 58 57 57 57 58 59 59 60 60 60 60 60 60 59 59 58 58 58 58 57 57 57 56 56 55 54 53 52 52 51 46 45 44 43 43 44 44 44 45 45 45 46 44 43 43 43 43
52 51 50 50 51 52 53 54 54 54 54 54 54 55 55 56 56 55 56 56 56 57 58 59 59 60 60 60 60 60 59 59 59 58 58 57 57 57 56 55 56 56 54 53 54 50 46 46 44 43 43 44 43 42 41 42 39 40 45 45 43 42 42
52 52 51 50 51 53 54 54 54 54 54 53 54 54 55 57 56 56 56 55 56 57 58 58 59 59 59 59 59 58 58 58 58 57 56 55 56 55 56 55 55 55 54 55 54 48 46 45 43 42 42 40 40 38 32 30 38 38 41 45 45 43 43
53 53 53 52 53 53 53 54 54 54 54 52 53 54 56 56 55 55 55 55 56 57 57 57 58 58 58 59 58 57 57 57 57 56 55 55 55 55 53 53 52 52 53 54 53 48 46 45 44 43 40 38 36 33 30 28 31 37 38 40 44 45 44
54 54 54 53 53 53 53 53 54 54 54 54 54 55 54 55 55 55 55 55 55 56 56 56 56 57 57 56 55 54 52 53 51 51 50 49 49 49 48 48 48 47 49 51 53 50 46 46 45 44 40 38 34 30 32 30 32 34 39 38 40 44 46
54 53 53 53 52 53 54 55 55 55 55 55 54 54 53 53 54 54 54 54 55 55 55 54 54 53 53 52 51 49 49 50 49 47 47 46 47 47 47 47 47 47 47 49 51 51 48 46 45 43 39 36 35 28 28 30 32 35 34 36 36 39 45
54 53 53 53 55 55 54 55 54 54 54 54 54 54 54 54 54 56 53 52 53 52 52 51 51 50 50 50 49 49 49 50 51 50 50 49 49 49 49 48 48 48 48 48 49 49 47 46 44 43 42 41 35 29 32 31 31 39 35 37 35 35 39
54 54 55 56 55 54 54 53 53 53 53 54 54 52 52 52 52 52 51 51 51 50 50 50 50 49 49 48 49 49 50 50 49 49 48 48 48 48 49 49 48 47 47 48 48 47 48 47 46 46 46 45 40 33 34 35 35 38 38 36 36 35 37
55 55 55 54 53 53 53 52 53 52 53 52 51 51 51 51 51 50 49 48 49 49 49 48 48 47 48 48 49 49 49 49 49 49 49 49 48 48 48 48 48 47 47 46 47 48 47 47 47 47 47 44 41 40 40 39 35 36 43 40 38 35 37
55 55 54 53 53 53 52 52 52 52 52 50 50 50 50 50 50 49 47 48 47 47 46 46 47 47 48 48 48 48 49 50 49 49 49 48 49 49 49 48 48 48 47 45 45 46 47 47 47 47 46 43 43 43 40 40 37 39 40 44 40 35 36
55 55 54 54 53 53 52 51 52 51 50 50 50 49 48 49 49 48 47 47 47 46 46 45 46 46 47 47 47 49 48 49 48 48 47 47 47 48 47 46 47 46 46 44 45 42 43 44 45 45 44 43 42 42 43 42 40 39 38 41 37 40 39
54 54 53 54 53 53 52 51 51 50 50 50 50 48 47 48 48 47 47 47 47 45 45 45 46 47 46 46 46 47 49 48 48 47 47 47 47 47 46 47 47 47 48 46 47 46 45 44 44 44 45 44 43 44 45 42 42 40 38 39 41 36 39
53 53 53 53 53 53 52 52 51 50 50 50 49 48 46 46 46 46 46 46 46 45 45 47 47 46 45 45 46 47 48 48 49 47 47 47 46 46 46 47 47 48 49 49 48 47 47 47 46 46 46 46 46 46 46 44 41 42 40 39 41 36 38
52 52 52 53 53 53 52 52 52 50 50 49 49 48 48 46 46 46 46 45 45 45 47 48 46 46 47 47 47 48 48 49 48 47 47 46 48 46 47 46 48 48 48 48 48 48 47 47 47 47 46 46 46 47 48 45 45 45 41 39 40 42 42
56 52 53 52 53 52 51 51 51 51 49 48 49 49 50 47 46 44 44 44 45 45 47 47 45 47 48 48 48 47 48 48 47 46 46 47 47 46 46 46 48 49 48 48 48 48 48 48 48 47 46 47 48 47 47 47 46 44 41 40 41 41 41
55 55 54 53 53 53 51 51 51 50 51 48 48 48 49 48 47 43 43 44 45 46 47 46 46 48 49 47 47 46 47 47 47 46 46 47 47 47 46 47 48 49 48 48 48 48 49 48 49 48 48 48 48 47 47 46 46 45 44 44 44 43 41
56 55 55 55 55 54 53 53 53 51 52 49 49 49 48 48 47 45 43 44 45 46 46 46 45 47 48 47 46 46 46 47 48 47 46 47 47 47 47 47 49 49 50 50 49 49 50 49 48 48 48 49 48 47 47 46 45 45 45 44 43 42 43
56 56 56 56 56 55 55 54 54 53 51 50 51 49 47 47 47 47 46 44 45 47 47 46 46 46 47 48 47 46 47 50 49 47 47 48 49 50 50 50 50 50 52 54 51 51 51 51 50 49 48 48 47 47 46 45 45 44 44 43 43 43 42
56 55 56 56 56 55 54 55 54 53 53 50 49 49 47 49 46 47 46 45 45 47 47 47 49 47 47 48 48 48 49 50 49 49 50 50 50 51 52 51 52 55 54 53 50 47 47 48 50 51 50 49 48 47 47 45 44 44 44 43 43 43 41
55 55 55 55 55 56 56 55 55 55 54 53 51 49 49 49 47 46 46 46 46 47 47 48 45 42 42 45 48 49 49 50 50 51 52 51 52 52 50 50 51 53 52 51 47 44 44 44 44 46 48 49 50 49 48 46 45 45 45 44 44 43 42
54 54 55 55 55 55 55 55 55 54 54 54 54 53 51 50 49 48 47 47 46 47 47 46 43 42 42 43 46 50 50 49 51 51 52 52 52 52 52 52 50 51 50 49 48 45 43 41 40 40 39 39 39 39 45 48 48 46 46 45 45 44 43
54 54 54 54 54 54 53 54 54 54 54 53 53 54 53 52 52 51 50 49 48 49 48 45 43 42 41 42 43 47 50 49 51 52 52 52 52 52 52 52 51 52 53 54 52 47 45 43 40 39 39 38 36 35 35 40 44 48 47 46 45 44 44
44 49 51 52 52 53 53 53 53 53 52 52 51 52 52 52 52 51 50 49 49 48 48 47 42 42 41 40 41 44 50 50 51 52 53 53 53 53 53 53 52 52 51 53 51 48 46 44 42 40 40 39 38 37 38 38 38 42 45 46 45 44 44
40 42 43 44 44 45 48 50 51 51 51 52 52 52 51 51 51 51 51 51 50 50 50 47 42 41 41 40 40 41 49 52 51 51 53 53 53 53 53 53 53 52 51 52 53 50 48 45 43 42 41 40 39 42 40 40 41 42 42 44 45 45 45
38 38 39 39 39 41 42 44 45 48 49 49 49 50 50 51 51 53 53 52 51 51 52 47 42 41 41 41 41 46 49 52 52 52 52 52 52 53 54 53 52 52 51 51 50 46 47 47 45 44 43 42 39 36 36 37 37 37 43 45 45 44 41
38 37 38 37 37 37 38 38 39 43 43 44 46 47 49 50 50 50 51 52 52 52 51 48 43 41 41 41 43 49 50 52 52 52 52 51 52 52 53 53 53 52 51 50 47 44 44 45 47 46 45 41 38 36 35 36 36 37 39 39 38 37 37
38 38 37 37 37 38 38 38 37 39 39 39 40 42 45 47 49 49 50 50 50 50 51 49 44 42 41 40 44 49 50 51 51 51 51 51 51 51 51 52 53 52 51 50 44 41 42 45 48 47 44 40 37 36 34 36 35 35 36 35 35 35 35
38 37 37 37 38 37 37 37 38 38 38 38 39 40 42 43 44 45 47 48 52 51 51 50 46 43 42 41 43 47 48 49 49 49 50 50 49 49 46 46 49 51 51 47 40 39 41 46 50 48 45 41 39 37 36 34 32 31 31 31 32 31 31
38 38 37 37 38 38 38 37 37 37 37 37 37 38 38 38 38 39 41 45 47 49 50 51 50 46 44 42 42 48 48 47 47 48 49 50 50 48 45 43 44 42 44 43 40 39 41 43 49 48 46 44 41 41 37 35 34 33 34 34 33 37 36
38 38 38 38 38 38 38 37 37 37 37 37 36 36 36 37 37 37 39 40 43 45 48 50 50 46 45 44 42 44 49 49 49 49 48 48 48 48 47 43 41 39 41 40 38 38 39 42 45 48 46 45 44 43 39 37 37 39 39 40 39 38 39
38 39 38 38 37 37 37 38 37 37 36 35 35 35 35 35 35 36 36 38 40 42 45 47 49 47 46 45 44 42 47 49 50 50 49 48 48 48 47 46 43 39 38 38 38 38 39 40 42 47 46 42 39 37 38 38 40 41 39 39 39 37 35
37 38 37 37 36 35 36 36 35 35 35 35 34 34 34 34 34 34 34 34 35 37 40 43 42 44 43 43 44 43 42 46 45 49 50 49 49 49 47 44 42 39 37 37 37 38 39 40 42 43 40 38 37 36 37 40 40 39 38 35 34 34 34
36 36 36 36 36 35 35 35 35 35 35 34 34 34 34 34 33 33 33 33 34 35 38 40 40 39 41 41 42 43 42 41 42 48 50 50 50 48 44 42 41 36 36 36 35 35 36 38 40 36 37 37 36 38 41 40 40 37 34 33 33 33 33

ECMWFFLT1_sfc_dewp_033.txt.gz
Dewpoint
59 58 58 58 57 59 59 58 58 58 59 60 61 60 61 61 61 60 60 60 61 61 62 61 60 60 60 59 59 58 57 57 57 57 56 55 57 57 57 56 55 55 53 49 49 48 47 49 48 49 49 53 57 58 60 59 58 54 50 49 48 47 47
58 58 58 58 57 58 58 56 57 57 58 58 59 60 60 61 62 60 60 60 60 61 62 61 60 60 60 59 58 58 57 57 57 56 57 57 56 56 56 54 54 52 51 51 50 49 47 47 46 47 48 53 56 56 58 56 53 50 50 49 49 48 49
57 57 56 56 56 56 57 55 55 56 56 55 56 58 58 59 60 60 60 60 60 60 61 60 60 60 59 59 59 58 57 57 56 57 57 57 57 56 56 55 52 50 49 48 48 47 46 47 47 45 50 53 54 52 53 50 49 48 48 46 44 43 44
56 55 55 55 55 55 56 54 54 54 54 55 55 55 56 57 57 59 58 58 59 61 61 60 60 60 59 59 59 57 57 57 56 56 55 55 56 56 56 55 52 50 49 47 47 47 46 45 44 44 45 48 53 53 49 49 48 44 43 43 42 42 42
55 55 54 54 54 55 54 54 54 55 54 54 54 54 55 56 56 56 57 57 59 59 59 59 59 59 59 59 58 57 57 56 56 57 56 56 56 56 55 54 53 51 50 48 47 48 46 46 45 44 45 48 47 45 46 45 45 45 44 42 42 42 42
54 53 53 53 54 53 53 54 54 54 53 54 53 55 54 55 55 55 54 56 57 59 58 58 58 59 59 59 58 58 57 57 57 57 57 57 57 57 56 54 54 53 52 51 50 47 47 46 45 44 44 46 45 44 44 44 43 41 45 44 43 42 41
53 52 52 52 53 53 54 54 54 54 53 53 53 54 54 55 54 55 55 55 55 56 57 57 57 58 59 59 58 58 57 57 57 56 56 55 55 54 55 55 54 53 52 53 48 47 46 45 44 44 42 41 44 44 35 37 40 42 42 44 45 43 43
53 52 52 52 53 53 53 54 53 53 53 52 53 53 55 54 54 54 54 55 55 56 56 57 58 57 57 58 57 57 56 55 56 56 55 56 56 55 54 55 55 53 54 52 47 46 46 45 45 43 43 42 37 36 33 31 34 40 42 41 44 44 44
54 53 53 53 53 53 53 54 53 52 52 53 53 54 54 54 54 54 54 54 54 55 55 55 56 57 57 57 55 55 54 56 55 54 54 55 55 54 55 53 54 54 54 53 47 46 45 45 45 44 43 43 40 34 33 36 34 36 40 41 41 43 44
53 52 52 53 52 52 53 53 54 53 53 53 54 53 52 52 53 54 54 53 54 54 53 54 54 54 55 55 53 51 50 50 52 51 50 51 51 51 50 50 52 51 53 53 49 47 46 46 45 44 42 41 39 34 32 34 34 37 40 37 41 42 44
53 53 53 53 53 53 53 54 54 54 53 53 54 54 52 53 54 55 53 52 51 52 52 52 52 52 52 50 50 50 49 49 49 49 49 48 48 48 49 48 48 48 50 53 50 47 46 45 44 43 41 40 37 35 35 35 35 37 40 39 37 38 43
53 53 54 55 54 53 53 53 53 53 53 53 54 53 52 52 51 51 52 51 50 50 50 50 50 50 49 49 49 49 49 49 49 48 48 48 48 48 48 47 47 47 49 51 51 47 46 45 44 42 41 40 39 37 35 36 34 36 38 39 37 36 40
54 54 54 54 53 53 53 53 53 52 53 53 52 52 51 51 50 50 49 50 49 49 49 49 49 48 48 48 49 49 48 48 48 48 48 47 49 48 47 46 46 47 48 49 49 47 46 45 44 42 42 41 38 37 37 35 34 34 40 38 37 35 38
54 54 54 53 53 53 53 53 53 52 52 50 50 51 50 50 49 48 48 50 49 48 47 47 47 48 48 47 47 48 48 48 48 47 49 48 48 47 47 46 46 46 47 48 48 47 46 45 45 45 44 41 39 40 37 37 34 37 38 42 40 36 37
54 54 53 53 52 52 52 52 52 51 50 49 50 50 50 49 48 47 47 47 47 47 47 46 46 47 47 47 47 49 49 48 48 47 46 47 46 48 46 45 45 45 45 47 47 46 46 46 45 45 43 40 38 40 41 39 38 38 36 40 39 39 37
54 53 53 53 52 52 52 51 52 50 49 49 49 49 49 48 48 47 47 47 46 45 46 46 46 47 46 47 47 47 48 47 47 46 46 46 46 46 45 46 45 46 46 45 45 45 46 45 45 44 43 41 39 39 40 40 39 37 37 39 39 36 37
53 53 53 53 52 51 51 51 51 50 50 49 48 47 47 48 47 46 47 46 45 44 45 45 46 46 46 46 46 47 47 47 46 46 47 46 46 45 45 45 45 46 46 45 45 45 45 45 44 44 43 42 40 40 42 41 38 39 38 37 39 34 37
53 53 53 53 52 52 51 51 50 49 49 48 48 46 47 46 46 45 46 45 45 44 45 46 46 45 45 45 46 46 46 47 47 46 46 46 49 45 46 45 46 46 46 45 45 45 46 45 44 44 43 43 41 43 45 42 41 42 39 36 38 40 40
54 53 53 53 52 52 52 51 50 49 49 48 47 46 46 45 46 45 45 45 45 45 46 46 46 45 46 46 46 46 46 47 47 46 46 46 47 46 46 46 47 47 47 46 46 46 46 46 46 45 45 45 45 46 45 43 43 42 38 37 38 39 40
54 54 55 54 54 53 51 51 51 50 50 48 48 47 47 46 47 45 45 45 45 46 47 47 45 45 46 46 46 46 46 46 46 46 46 46 46 46 46 47 47 47 47 47 47 47 47 46 47 45 47 47 47 46 45 45 44 41 40 39 40 40 39
55 55 55 55 54 53 52 51 51 50 50 47 47 48 48 47 46 45 45 44 45 46 46 46 44 46 47 47 47 46 46 46 46 46 46 46 46 46 47 47 48 48 47 48 48 48 48 47 46 45 45 47 46 46 45 45 44 43 42 41 40 40 42
55 54 54 54 54 53 53 52 51 51 50 49 49 48 48 47 46 45 44 44 44 46 46 46 46 46 46 46 46 46 46 46 46 46 46 46 46 46 46 46 47 48 50 52 50 49 49 49 48 46 46 46 45 46 44 44 44 43 42 42 42 42 41
55 54 53 53 54 54 54 53 52 52 51 50 49 49 48 47 47 46 44 44 43 45 46 46 48 47 47 47 46 46 46 46 46 46 46 46 46 48 48 47 50 54 54 53 50 47 46 47 49 48 48 47 47 46 45 44 43 43 43 42 43 43 41
55 54 54 54 55 55 54 54 53 53 53 52 50 48 48 47 46 46 45 44 43 45 46 47 45 43 42 45 47 46 46 46 46 46 46 46 46 48 49 48 48 51 53 53 49 46 45 45 46 46 47 47 48 47 45 44 43 43 44 43 42 41 41
54 54 55 53 52 53 53 53 53 52 52 53 53 50 48 48 48 46 46 45 44 44 45 46 43 42 41 41 45 47 47 47 48 47 48 48 47 48 49 49 48 48 49 48 46 45 45 44 44 45 44 44 45 45 45 46 45 43 43 43 42 43 41
50 50 52 53 53 52 53 53 53 53 52 52 52 53 52 51 50 49 46 46 46 46 45 44 42 42 41 40 40 44 47 47 48 48 49 49 49 49 50 50 49 48 50 52 51 45 45 43 41 40 40 39 38 38 38 42 44 46 46 45 44 44 43
39 40 41 42 44 46 48 49 50 50 50 51 51 51 51 51 50 50 50 49 48 48 47 46 45 44 42 40 39 41 46 47 48 48 50 50 50 50 50 51 50 50 49 50 49 47 46 45 43 41 40 40 40 38 38 38 38 41 45 47 46 45 45
39 38 38 38 39 40 40 40 42 44 45 46 48 49 49 50 50 51 50 50 49 49 49 47 44 42 41 40 40 40 44 46 48 48 49 50 51 51 51 52 51 51 51 51 51 48 47 46 44 44 42 41 39 40 39 39 39 41 43 45 46 46 45
41 40 39 38 38 39 39 38 39 42 42 41 42 43 45 46 48 50 51 49 49 50 51 46 42 41 40 40 40 43 44 45 47 48 50 50 51 51 52 52 52 52 51 51 50 45 46 47 46 45 44 41 39 36 36 39 37 38 40 43 45 45 45
41 39 38 37 36 37 37 37 39 40 39 39 41 41 42 43 44 45 47 49 49 50 50 48 44 43 42 40 41 45 46 46 47 48 50 50 51 51 52 52 52 52 52 51 48 45 43 45 46 45 44 42 39 38 37 37 37 37 39 40 40 40 39
39 38 37 37 37 37 37 37 37 38 37 36 37 38 40 40 40 41 42 43 46 47 48 48 44 44 43 41 42 47 48 48 48 48 49 50 51 51 51 52 53 52 52 52 46 44 42 45 47 47 46 44 40 40 38 36 37 36 36 36 36 36 36
39 38 39 39 38 37 37 37 37 37 36 36 36 36 38 37 38 38 40 41 45 44 45 45 43 42 41 42 43 45 47 48 49 49 49 50 50 50 51 50 50 51 51 50 46 42 42 45 47 47 46 44 44 41 39 36 36 34 33 33 32 33 34
39 39 39 39 40 39 37 37 36 36 36 35 35 36 36 36 36 37 39 40 40 41 43 43 43 40 40 40 41 45 46 47 47 48 49 50 50 50 48 47 47 45 44 45 44 41 42 42 47 49 47 46 45 45 38 35 36 37 36 37 34 34 34
38 37 37 37 37 38 40 39 38 36 35 35 35 35 35 35 35 35 36 38 39 39 41 42 41 39 38 38 39 42 45 47 48 48 48 48 48 49 50 48 45 43 42 43 43 41 40 40 43 49 48 47 47 44 36 36 35 37 37 35 36 35 35
38 38 38 37 37 36 36 36 36 38 38 35 35 35 35 35 34 34 34 35 36 37 39 41 40 39 38 38 37 38 43 45 47 48 48 48 48 48 48 48 47 44 41 40 41 41 40 41 41 46 47 43 39 36 38 38 36 36 37 37 38 37 36
37 37 37 37 36 35 36 36 36 36 35 35 35 34 34 34 34 33 33 34 34 35 35 37 38 38 37 37 37 38 38 42 41 45 47 48 49 49 48 48 47 45 41 40 40 40 40 39 39 43 42 39 37 35 38 38 36 38 38 38 37 36 36
36 36 37 36 36 35 35 36 36 36 35 35 34 34 34 34 33 33 33 33 33 34 34 35 37 37 37 37 37 37 38 39 39 43 46 48 49 50 49 48 47 43 41 40 39 39 39 39 42 41 40 39 37 36 41 38 38 39 37 35 35 35 35

ECMWFFLT1_sfc_dewp_036.txt.gz
Dewpoint
59 59 58 58 58 60 60 60 61 62 62 63 62 62 61 61 61 61 60 60 61 62 62 61 61 61 60 60 60 59 58 59 59 58 58 59 58 58 58 57 56 55 53 52 52 52 52 52 53 56 57 58 59 59 58 55 52 51 50 49 46 46 47
59 59 59 59 59 59 59 59 60 60 60 61 61 61 61 61 62 61 60 61 61 62 62 61 60 61 60 60 59 58 58 58 58 58 59 58 58 57 56 55 53 52 52 52 51 51 51 52 51 53 55 57 57 56 53 52 51 51 51 51 49 46 49
58 58 58 58 58 58 58 57 57 58 58 59 60 60 61 61 61 61 61 61 61 63 62 61 60 60 60 60 59 59 58 58 58 58 59 59 58 58 57 55 53 51 51 50 51 51 50 51 52 53 55 55 55 54 52 51 48 47 46 47 46 43 44
58 58 57 57 56 57 57 56 56 56 56 57 59 60 60 61 60 61 60 60 61 63 62 61 61 60 60 60 59 59 58 58 58 58 58 58 58 58 56 56 53 51 51 50 49 51 50 50 52 53 54 54 55 54 51 49 49 44 43 45 44 44 45
57 57 58 57 57 57 56 56 55 55 55 55 55 56 57 59 61 60 60 60 61 62 61 61 61 61 60 59 59 59 58 58 58 58 57 57 57 58 57 56 54 53 52 51 50 51 51 52 53 52 53 53 50 45 45 49 45 45 45 43 44 44 45
57 57 57 57 57 57 56 55 55 55 54 55 54 56 55 56 58 57 58 59 60 60 60 60 60 60 60 59 59 58 58 58 58 58 57 58 58 58 58 56 54 53 52 51 51 50 51 52 52 51 49 50 50 46 45 44 45 44 46 43 44 43 42
57 56 56 56 55 56 56 56 56 55 55 55 55 55 55 56 56 56 57 56 57 58 59 58 59 59 59 59 59 58 58 58 58 57 57 57 57 57 57 56 55 54 53 51 50 50 50 51 51 52 50 46 47 44 38 41 41 42 42 45 45 44 44
56 55 55 55 55 54 55 55 55 55 55 54 55 55 56 55 55 55 55 56 57 57 58 58 59 59 59 59 59 58 58 57 57 57 57 57 57 56 56 57 55 54 53 50 50 49 49 51 52 51 49 48 44 43 40 36 39 42 44 44 45 44 45
55 54 54 54 54 55 54 55 54 54 54 54 54 55 55 54 55 56 56 55 56 56 57 57 58 58 59 59 58 58 57 58 57 57 56 57 57 56 56 56 56 55 54 50 49 49 48 51 52 51 51 50 47 44 38 42 41 40 41 43 43 44 44
53 53 53 53 54 54 54 54 54 54 54 55 55 55 54 53 54 55 55 55 55 55 56 57 57 57 58 58 57 56 56 56 57 56 55 56 56 56 56 56 56 55 54 52 50 50 50 50 50 51 51 50 49 44 39 42 43 42 42 41 42 43 45
52 53 53 53 53 53 53 54 54 54 55 55 55 54 54 54 56 57 54 54 53 54 55 55 55 55 55 54 54 54 53 54 54 52 54 55 54 55 54 54 55 55 55 53 50 50 49 49 48 49 50 49 46 43 43 43 43 42 44 43 43 42 44
53 53 53 53 54 54 54 54 54 54 53 54 55 54 53 52 53 53 53 52 52 52 52 52 52 52 52 51 51 51 50 51 50 50 50 52 51 53 52 53 51 54 54 53 50 49 49 48 48 47 46 46 45 46 44 44 42 43 45 45 44 40 43
53 53 53 53 53 53 54 53 53 53 53 54 53 53 52 52 52 52 52 51 50 51 51 50 51 50 51 51 51 50 50 50 49 49 49 50 49 50 50 50 49 51 52 53 50 49 48 48 47 45 45 44 43 44 45 43 42 41 43 46 46 41 40
53 54 53 53 53 53 53 53 53 53 53 52 52 52 51 51 50 51 51 51 50 50 49 49 50 50 50 49 50 50 49 49 48 49 50 49 49 48 48 48 48 49 51 53 50 48 47 46 46 46 45 43 41 43 42 43 41 40 40 46 45 41 41
53 53 53 53 53 53 53 53 53 52 51 51 51 51 50 50 49 50 49 49 49 48 48 48 49 49 49 49 50 50 49 48 48 48 49 48 49 48 48 48 47 48 50 52 50 46 46 45 44 43 43 42 39 41 43 42 42 44 42 43 45 42 39
53 53 52 52 52 52 52 52 52 51 50 50 51 50 49 48 48 48 48 48 47 47 47 47 48 48 49 49 49 49 49 49 48 48 48 48 47 47 47 48 47 48 49 51 50 48 48 46 44 42 44 42 41 41 40 42 44 41 41 42 45 40 41
53 53 52 52 52 52 52 52 51 50 50 50 49 49 48 48 47 47 48 47 46 46 47 47 47 48 48 48 49 49 48 48 48 48 48 47 46 47 47 47 47 48 49 49 48 48 48 47 47 45 45 45 43 41 43 44 44 44 42 40 43 36 38
53 53 52 52 52 51 51 51 51 50 49 49 48 48 49 47 46 46 47 46 45 45 46 47 46 47 47 48 48 49 48 48 48 48 48 47 50 47 48 47 48 48 47 48 47 47 47 48 46 47 45 44 42 43 44 44 43 45 43 41 42 42 42
53 53 52 52 52 52 51 51 50 50 49 48 47 47 47 48 47 46 46 46 46 45 46 47 46 46 47 48 48 48 49 49 48 48 47 47 48 48 48 48 48 48 47 47 47 48 48 47 46 47 45 44 42 44 45 45 45 44 41 41 42 42 43
54 54 53 53 53 52 51 51 50 50 50 48 47 47 47 46 49 46 46 46 46 46 47 47 46 47 47 47 48 48 48 48 48 48 48 47 48 48 48 48 49 49 48 48 48 47 48 48 48 47 47 47 44 45 45 44 43 42 42 42 42 43 42
55 55 54 54 53 52 51 51 50 51 49 48 48 48 47 46 47 46 46 46 47 48 47 46 46 47 47 47 48 47 48 48 48 47 47 47 48 48 48 49 49 49 49 49 48 48 48 48 48 47 48 48 48 46 45 46 45 43 43 43 42 42 44
55 54 54 54 53 53 53 52 52 51 50 50 50 49 49 47 47 47 46 45 45 47 47 47 47 47 48 47 47 47 47 48 48 48 47 46 47 47 47 48 48 49 51 51 49 49 49 48 48 48 48 49 48 47 47 46 46 44 44 43 43 45 44
54 54 54 54 54 54 53 53 53 52 52 51 50 50 49 48 48 47 47 46 45 46 47 47 49 47 47 48 47 47 47 47 47 48 48 47 47 48 48 49 52 53 53 53 50 47 46 46 48 48 49 49 48 47 47 46 46 46 45 44 43 44 44
54 54 54 54 54 54 53 53 52 52 52 51 50 49 48 48 47 48 48 46 46 45 47 47 45 43 43 45 47 47 47 47 48 48 48 47 47 47 48 50 50 52 54 53 52 46 44 44 45 45 45 47 48 48 47 46 46 46 46 45 45 45 45
53 53 53 53 53 53 53 52 52 52 52 52 52 50 50 49 48 47 47 46 45 46 47 45 42 42 41 41 44 48 47 47 48 48 48 47 47 48 48 49 50 51 52 52 52 50 47 45 44 44 44 44 43 43 44 47 47 46 46 46 45 45 46
43 45 46 48 48 47 46 46 47 48 49 50 51 51 51 52 51 50 48 47 48 48 48 44 42 42 42 41 41 43 47 48 47 48 49 49 48 48 48 49 50 50 51 53 54 49 49 48 43 44 43 44 43 43 42 42 43 48 48 47 46 46 46
40 40 40 40 40 39 40 42 44 45 46 46 47 47 48 49 50 51 51 50 50 50 50 43 41 41 41 40 40 41 45 47 48 48 49 49 50 50 49 49 49 50 50 52 52 49 48 48 46 45 46 47 48 44 38 38 40 40 45 48 48 47 48
39 39 39 40 40 39 38 39 39 41 42 43 43 44 45 44 46 48 49 49 50 50 48 41 41 41 41 41 39 41 45 45 46 48 49 50 50 50 51 51 50 50 50 51 52 49 48 48 47 47 46 46 45 43 43 43 43 44 46 48 49 49 49
38 39 39 38 39 38 38 38 38 40 40 39 40 40 41 42 42 43 45 47 48 47 46 39 39 40 41 41 43 47 46 46 46 47 47 48 50 51 51 51 51 51 51 51 49 44 45 49 48 48 47 47 44 42 41 40 37 39 42 43 46 47 48
40 40 40 39 38 39 38 38 38 39 37 37 38 38 40 40 41 41 42 43 44 44 44 40 38 38 39 41 44 48 48 48 47 48 48 49 50 50 51 51 52 52 52 52 48 45 43 45 49 49 49 47 46 44 42 40 38 38 38 39 40 40 41
38 38 38 38 39 40 40 40 38 38 36 36 36 37 39 38 38 40 40 41 43 42 42 41 38 38 38 39 43 47 48 48 48 48 49 50 50 50 51 50 52 52 52 52 46 45 42 46 50 49 49 48 45 44 44 39 40 41 37 37 37 37 37
39 39 38 38 39 39 39 39 39 40 38 36 36 36 37 35 36 37 39 40 41 41 41 41 38 37 37 38 42 45 47 47 48 48 48 49 50 50 51 50 49 49 51 50 45 45 42 45 50 50 49 48 47 46 46 40 41 40 37 40 39 39 38
39 38 39 39 40 41 41 40 39 38 39 37 36 36 35 35 36 37 37 37 38 39 40 40 39 37 37 37 38 43 45 45 46 47 48 48 49 50 50 50 49 44 42 42 42 42 41 42 50 51 50 49 48 46 49 42 42 44 41 43 39 39 39
37 37 37 37 37 39 40 40 40 40 40 40 39 38 36 36 35 35 35 36 36 37 39 39 38 37 37 37 37 39 43 44 45 46 47 47 48 48 49 49 50 46 43 42 41 41 42 40 43 51 51 50 51 50 44 44 41 39 40 38 38 37 36
38 38 38 37 36 36 37 37 37 39 39 39 38 38 37 38 37 37 35 35 36 36 38 39 38 37 36 37 37 38 41 43 43 44 45 46 47 48 48 49 49 46 43 42 41 40 40 40 40 48 49 44 44 41 46 45 42 41 40 37 36 36 36
37 37 37 37 36 36 36 36 36 36 36 36 35 35 35 35 35 36 35 35 35 35 36 37 37 37 36 36 37 37 37 40 37 43 44 44 45 46 48 49 49 45 42 42 41 41 40 39 40 44 42 41 41 40 40 43 40 39 38 36 36 36 36
36 36 37 36 36 35 35 35 35 36 35 35 35 35 34 35 34 34 34 34 35 35 35 35 36 36 36 36 36 36 36 36 37 40 41 42 44 45 46 47 46 42 40 40 40 40 40 39 42 40 40 41 41 39 43 41 39 39 37 36 36 36 37